This demonstration page uses our WeatherBlox Daily Observations layout. Learn more.

Left ArrowRight Arrow

34.16533, -84.80231

Hourly Observations for November 27, 2020

Temp ( °F °C ) Dew Point ( °F °C ) Humidity (%) Winds ( mph kmh ) Pressure ( in mb ) Visibility ( mi km ) Precip ( " mm )
12:53 am 00:53 Clear 43 6.1 40 4.4 89 89 Calm 30.10 1019 10 16 0.00 0.00
1:53 am 01:53 Clear 43 6.1 40 4.4 89 89 Calm 30.10 1019 7 11 0.00 0.00
2:53 am 02:53 Clear 41 5 39 3.9 93 93 Calm 30.11 1020 9 14 0.00 0.00
3:53 am 03:53 Clear 40 4.4 38 3.3 93 93 Calm 30.10 1019 9 14 0.00 0.00
4:53 am 04:53 Clear 39 3.9 37 2.8 93 93 Calm 30.11 1020 9 14 0.00 0.00
5:15 am 05:15 Mostly Clear 39 3.9 37 2.8 93 93 Calm 30.16 1021 9 14 0.00 0.00
5:53 am 05:53 Clear 40 4.4 37 2.8 89 89 Calm 30.13 1020 9 14 0.00 0.00
6:40 am 06:40 Partly Cloudy 38 3.3 36 2.2 93 93 Calm 30.18 1022 9 14 0.00 0.00
6:49 am 06:49 Mostly Cloudy with Mist and Fog 37 3 36 2 93 93 Calm 30.18 1022 3 4 0.00 0.00
6:53 am 06:53 Mostly Cloudy with Mist and Fog 38 3.3 36 2.2 93 93 Calm 30.14 1021 1 1 0.00 0.00
7:08 am 07:08 Cloudy with Mist and Fog 39 3.9 37 2.8 93 93 Calm 30.18 1022 2 3 0.00 0.00
7:17 am 07:17 Cloudy with Mist and Fog 39 3.9 37 2.8 93 93 Calm 30.18 1022 5 8 0.00 0.00
7:37 am 07:37 Partly Cloudy 39 3.9 37 2.8 93 93 Calm 30.19 1022 8 13 0.00 0.00
7:53 am 07:53 Sunny 39 3.9 37 2.8 93 93 Calm 30.15 1021 9 14 0.00 0.00
8:53 am 08:53 Sunny 45 7.2 42 5.6 90 90 Calm 30.16 1021 10 16 0.00 0.00
9:53 am 09:53 Sunny 51 10.6 47 8.3 86 86 Calm 30.17 1022 10 16 0.00 0.00
10:53 am 10:53 Sunny 58 14.4 47 8.3 67 67 Calm 30.16 1021 10 16 0.00 0.00
11:53 am 11:53 Sunny 62 16.7 47 8.3 58 58 Calm 30.14 1021 10 16 0.00 0.00
12:53 pm 12:53 Sunny 65 18.3 46 7.8 51 51 Calm 30.11 1020 10 16 0.00 0.00
1:53 pm 13:53 Sunny 67 19.4 44 6.7 44 44 Calm 30.09 1019 10 16 0.00 0.00
2:53 pm 14:53 Sunny 66 18.9 45 7.2 47 47 Calm 30.07 1018 10 16 0.00 0.00
3:53 pm 15:53 Sunny 65 18.3 48 8.9 54 54 Calm 30.08 1019 10 16 0.00 0.00
4:53 pm 16:53 Sunny 59 15 52 11.1 78 78 Calm 30.06 1018 10 16 0.00 0.00
5:53 pm 17:53 Clear 58 14.4 50 10 75 75 Calm 30.05 1018 10 16 0.00 0.00
6:53 pm 18:53 Clear 56 13.3 50 10 81 81 Calm 30.06 1018 10 16 0.00 0.00
7:53 pm 19:53 Cloudy 57 13.9 50 10 78 78 Calm 30.07 1018 10 16 0.00 0.00
8:53 pm 20:53 Mostly Clear 54 12.2 51 10.6 90 90 Calm 30.05 1018 10 16 0.00 0.00
9:53 pm 21:53 Mostly Cloudy 55 12.8 51 10.6 87 87 Calm 30.05 1018 10 16 0.00 0.00
10:53 pm 22:53 Cloudy 56 13.3 51 10.6 84 84 Calm 30.06 1018 10 16 0.00 0.00
11:53 pm 23:53 Cloudy 56 13.3 52 11.1 87 87 Calm 30.06 1018 10 16 0.00 0.00

Powered by AerisWeather